User: anonymous   Login
Location: Unspecified
(0.0000°N, 0.0000°E)
Time: 07:47:48
(UTC+00:00)
Language:

STARLINK-4298 - Orbit

View from above orbital plane
View from above orbital plane
View from above satellite
View from above satellite

Ground track
Ground track

The orbit is defined by the following mean orbital elements,

1 53177U          26145.29740444 +.00000000 +00000-0 +72310-4 0 00005
2 53177  53.2150 155.2003 0001140  80.1747 279.9374 15.08841292    01
Epoch (UTC): 25 May 2026 07:08:15
Eccentricity: 0.0001140
inclination: 53.2150°
perigee height: 539 km
apogee height: 541 km
right ascension of ascending node: 155.2003°
argument of perigee: 80.1747°
revolutions per day: 15.08841292
mean anomaly at epoch: 279.9374°

The dashed part of the orbit path shows where the satellite is in the earth's shadow,  

DLR